Location: Bannatyne
(13.0833°N, 59.5333°W)
Time: 00:17:57
(UTC+00:00)

Transit 2A - Pass Details

Date: 02 February 2020
Orbit: 600 x 959 km, 66.7° (Epoch: 20 February)

Event Time Altitude Azimuth Distance (km) Brightness Sun altitude
Rises 21:37:11 0° 234° (SW) 3,013 10.8 4.3°
Reaches altitude 10° 21:40:23 10° 256° (WSW) 2,039 10.9 3.6°
Maximum altitude 21:43:07 16° 293° (WNW) 1,658 8.6 2.9°
Drops below altitude 10° 21:45:45 10° 330° (NNW) 1,964 8.3 2.3°
Sets 21:48:47 0° 354° (N) 2,843 8.8 1.6°
